Terminal Aerodrome Forecast
Issued by NWS

Home | Current Version | Previous Version | Text Only | Print | Product List | Glossary On
Versions: 1 2 3 4 5 6 7 8 9 10 11 12 13 14 15 16 17 18 19 20 21 22 23 24 25 26
321
FTUS46 KMTR 252340
TAFSFO
TAF
KSFO 252340Z 2600/2706 35005KT P6SM VCSH FEW030 BKN050 OVC100
     FM260200 02005KT P6SM BKN050 BKN150
     FM261100 VRB03KT P6SM FEW020 BKN150
     FM261500 30005KT P6SM SCT050 BKN200
     FM262000 30011KT P6SM BKN050 OVC200
     FM262300 28016KT P6SM BKN050 BKN200
     FM270300 27010KT P6SM BKN040 BKN200=

USA.gov is the U.S. government's official web portal to all federal, state and local government web resources and services.